QPF
0.00 0.00 0.00 0.00 0.00 0.00 0.00 0.00 0.00 0.00 0.00 0.00 0.00 0.00 0.00 0.00 0.00 0.00 0.00 0.00 0.00 0.00 0.00 0.00 0.00 0.00 0.00 0.00 0.00 0.00 0.00 0.00 0.00 0.00 0.00 0.00 0.00 0.00 0.00 0.00 0.00 0.00 0.00 0.01
0.00 0.00 0.00 0.00 0.00 0.00 0.00 0.00 0.00 0.00 0.00 0.00 0.00 0.00 0.00 0.00 0.00 0.00 0.00 0.00 0.00 0.00 0.00 0.00 0.00 0.00 0.00 0.00 0.00 0.00 0.00 0.00 0.00 0.00 0.00 0.00 0.00 0.00 0.00 0.00 0.00 0.00 0.00 0.00
0.00 0.00 0.00 0.00 0.00 0.00 0.00 0.00 0.00 0.00 0.00 0.00 0.00 0.00 0.00 0.00 0.00 0.00 0.00 0.00 0.00 0.00 0.00 0.00 0.00 0.00 0.00 0.00 0.00 0.00 0.00 0.00 0.00 0.00 0.00 0.00 0.00 0.00 0.00 0.00 0.00 0.00 0.00 0.00
0.00 0.00 0.00 0.00 0.00 0.00 0.00 0.00 0.00 0.00 0.00 0.00 0.00 0.00 0.00 0.00 0.00 0.00 0.00 0.00 0.00 0.00 0.00 0.00 0.00 0.00 0.00 0.00 0.00 0.00 0.00 0.00 0.00 0.00 0.00 0.00 0.00 0.00 0.00 0.00 0.00 0.00 0.00 0.00
0.00 0.00 0.00 0.00 0.00 0.00 0.00 0.00 0.00 0.00 0.00 0.00 0.00 0.00 0.00 0.00 0.00 0.00 0.00 0.00 0.00 0.00 0.00 0.00 0.00 0.00 0.00 0.00 0.00 0.00 0.00 0.00 0.00 0.00 0.00 0.00 0.00 0.00 0.00 0.00 0.00 0.00 0.00 0.00
0.00 0.00 0.00 0.00 0.00 0.00 0.00 0.00 0.00 0.00 0.00 0.00 0.00 0.00 0.00 0.00 0.00 0.00 0.00 0.00 0.00 0.00 0.00 0.00 0.00 0.00 0.00 0.00 0.00 0.00 0.00 0.00 0.00 0.00 0.00 0.00 0.00 0.00 0.00 0.00 0.00 0.00 0.00 0.00
0.00 0.00 0.00 0.00 0.00 0.00 0.00 0.00 0.00 0.00 0.00 0.00 0.00 0.00 0.00 0.00 0.00 0.00 0.00 0.00 0.00 0.00 0.00 0.00 0.00 0.00 0.00 0.00 0.00 0.00 0.00 0.00 0.00 0.00 0.00 0.00 0.00 0.00 0.00 0.00 0.00 0.00 0.00 0.00
0.00 0.00 0.00 0.00 0.00 0.00 0.00 0.00 0.00 0.00 0.00 0.00 0.00 0.00 0.00 0.00 0.00 0.00 0.00 0.00 0.00 0.00 0.00 0.00 0.00 0.00 0.00 0.00 0.00 0.00 0.00 0.00 0.00 0.00 0.00 0.00 0.00 0.00 0.00 0.00 0.00 0.00 0.00 0.00
0.00 0.00 0.00 0.00 0.00 0.00 0.00 0.00 0.00 0.00 0.00 0.00 0.00 0.00 0.00 0.00 0.00 0.00 0.00 0.00 0.00 0.00 0.00 0.00 0.00 0.00 0.00 0.00 0.00 0.00 0.00 0.00 0.00 0.00 0.00 0.00 0.00 0.00 0.00 0.00 0.00 0.00 0.00 0.00
0.00 0.00 0.00 0.00 0.00 0.00 0.00 0.00 0.00 0.00 0.00 0.00 0.00 0.00 0.00 0.00 0.00 0.00 0.00 0.00 0.00 0.00 0.00 0.00 0.00 0.00 0.00 0.00 0.00 0.00 0.00 0.00 0.00 0.00 0.00 0.00 0.00 0.00 0.00 0.00 0.00 0.00 0.00 0.00
0.00 0.00 0.00 0.00 0.00 0.00 0.00 0.00 0.00 0.00 0.00 0.00 0.00 0.00 0.00 0.00 0.00 0.00 0.00 0.00 0.00 0.00 0.00 0.00 0.00 0.00 0.00 0.00 0.00 0.00 0.00 0.00 0.00 0.00 0.00 0.00 0.00 0.00 0.00 0.00 0.00 0.00 0.00 0.00
0.00 0.00 0.00 0.00 0.00 0.00 0.00 0.00 0.00 0.00 0.00 0.00 0.00 0.00 0.00 0.00 0.00 0.00 0.00 0.00 0.00 0.00 0.00 0.00 0.00 0.00 0.00 0.00 0.00 0.00 0.00 0.00 0.00 0.00 0.00 0.00 0.00 0.00 0.00 0.00 0.00 0.00 0.00 0.00
0.00 0.00 0.00 0.00 0.00 0.00 0.00 0.00 0.00 0.00 0.00 0.00 0.00 0.00 0.00 0.00 0.00 0.00 0.00 0.00 0.00 0.00 0.00 0.00 0.00 0.00 0.00 0.00 0.00 0.00 0.00 0.00 0.00 0.00 0.00 0.00 0.00 0.00 0.00 0.00 0.00 0.00 0.00 0.00
0.00 0.00 0.00 0.00 0.00 0.00 0.00 0.00 0.00 0.00 0.01 0.01 0.00 0.00 0.00 0.00 0.00 0.00 0.00 0.00 0.00 0.00 0.00 0.00 0.00 0.00 0.00 0.00 0.00 0.00 0.00 0.00 0.00 0.00 0.00 0.00 0.00 0.00 0.00 0.00 0.00 0.00 0.00 0.00
0.00 0.00 0.00 0.00 0.00 0.00 0.00 0.00 0.00 0.00 0.00 0.00 0.00 0.00 0.00 0.00 0.00 0.00 0.00 0.00 0.00 0.00 0.00 0.00 0.00 0.00 0.00 0.00 0.00 0.00 0.00 0.00 0.00 0.00 0.00 0.00 0.00 0.00 0.00 0.00 0.00 0.00 0.00 0.00
0.01 0.01 0.01 0.01 0.00 0.00 0.00 0.00 0.00 0.00 0.00 0.00 0.00 0.00 0.00 0.00 0.00 0.00 0.00 0.00 0.00 0.00 0.00 0.00 0.00 0.00 0.00 0.00 0.00 0.00 0.00 0.00 0.00 0.00 0.00 0.00 0.00 0.00 0.00 0.00 0.00 0.00 0.00 0.00
0.02 0.02 0.03 0.02 0.01 0.01 0.01 0.00 0.00 0.00 0.00 0.00 0.00 0.00 0.00 0.00 0.00 0.00 0.00 0.00 0.00 0.00 0.00 0.00 0.00 0.00 0.00 0.00 0.00 0.00 0.00 0.00 0.00 0.00 0.00 0.00 0.00 0.00 0.00 0.00 0.00 0.00 0.00 0.00
0.02 0.04 0.07 0.06 0.04 0.04 0.01 0.00 0.00 0.00 0.00 0.00 0.00 0.00 0.00 0.00 0.00 0.00 0.00 0.00 0.00 0.00 0.00 0.00 0.00 0.00 0.00 0.00 0.00 0.00 0.00 0.00 0.00 0.00 0.00 0.00 0.00 0.00 0.00 0.00 0.00 0.00 0.00 0.00
0.01 0.03 0.07 0.07 0.06 0.02 0.00 0.00 0.00 0.00 0.00 0.00 0.00 0.00 0.00 0.00 0.00 0.00 0.00 0.00 0.00 0.00 0.00 0.00 0.00 0.00 0.00 0.00 0.00 0.00 0.00 0.00 0.00 0.00 0.00 0.00 0.00 0.00 0.00 0.00 0.00 0.00 0.00 0.00
0.01 0.03 0.06 0.07 0.05 0.02 0.00 0.00 0.00 0.00 0.00 0.00 0.00 0.00 0.00 0.00 0.00 0.00 0.00 0.00 0.00 0.00 0.00 0.00 0.00 0.00 0.00 0.00 0.00 0.00 0.00 0.00 0.00 0.00 0.00 0.00 0.00 0.00 0.00 0.00 0.00 0.00 0.00 0.00
0.02 0.04 0.05 0.04 0.03 0.01 0.00 0.00 0.00 0.00 0.00 0.00 0.00 0.00 0.00 0.00 0.00 0.00 0.00 0.00 0.00 0.00 0.00 0.00 0.00 0.00 0.00 0.00 0.00 0.00 0.00 0.00 0.00 0.00 0.00 0.00 0.00 0.00 0.00 0.00 0.00 0.00 0.00 0.00
0.00 0.01 0.01 0.01 0.02 0.01 0.00 0.00 0.00 0.00 0.00 0.00 0.00 0.00 0.00 0.00 0.00 0.00 0.00 0.00 0.00 0.00 0.00 0.00 0.00 0.00 0.00 0.00 0.00 0.00 0.00 0.00 0.00 0.00 0.00 0.00 0.00 0.00 0.00 0.00 0.00 0.00 0.00 0.00
0.00 0.00 0.00 0.00 0.00 0.00 0.00 0.00 0.00 0.00 0.00 0.00 0.00 0.00 0.00 0.00 0.00 0.00 0.00 0.00 0.00 0.00 0.00 0.00 0.00 0.00 0.00 0.00 0.00 0.00 0.00 0.00 0.00 0.00 0.00 0.00 0.00 0.00 0.00 0.00 0.00 0.00 0.00 0.00
0.00 0.00 0.00 0.00 0.00 0.00 0.00 0.00 0.00 0.00 0.00 0.00 0.00 0.00 0.00 0.00 0.00 0.00 0.00 0.00 0.00 0.00 0.00 0.00 0.00 0.00 0.00 0.00 0.00 0.00 0.00 0.00 0.00 0.00 0.00 0.00 0.00 0.00 0.00 0.00 0.00 0.00 0.00 0.00
0.00 0.00 0.00 0.00 0.00 0.00 0.00 0.00 0.00 0.00 0.00 0.00 0.00 0.00 0.00 0.00 0.00 0.00 0.00 0.00 0.00 0.00 0.00 0.00 0.00 0.00 0.00 0.00 0.00 0.00 0.00 0.00 0.00 0.00 0.00 0.00 0.00 0.00 0.00 0.00 0.00 0.00 0.00 0.00
0.00 0.00 0.00 0.00 0.00 0.00 0.00 0.00 0.00 0.00 0.00 0.00 0.00 0.00 0.00 0.00 0.00 0.00 0.00 0.00 0.00 0.00 0.00 0.00 0.00 0.00 0.00 0.00 0.00 0.00 0.00 0.00 0.00 0.00 0.00 0.00 0.00 0.00 0.00 0.00 0.00 0.00 0.00 0.00
MSLP
1019.38 1020.02 1020.61 1021.10 1021.44 1021.63 1021.66 1021.55 1021.35 1021.16 1021.03 1021.05 1021.27 1021.70 1022.34 1023.15 1024.04 1024.94 1025.75 1026.42 1026.87 1027.10 1027.10 1026.88 1026.49 1025.98 1025.39 1024.77 1024.17 1023.64 1023.22 1022.93 1022.80 1022.84 1023.01 1023.31 1023.68 1024.06 1024.41 1024.67 1024.82 1024.84 1024.77 1024.62
1019.52 1020.07 1020.56 1020.98 1021.29 1021.48 1021.56 1021.54 1021.45 1021.37 1021.34 1021.43 1021.68 1022.11 1022.71 1023.47 1024.31 1025.17 1025.97 1026.66 1027.16 1027.46 1027.55 1027.42 1027.12 1026.68 1026.16 1025.60 1025.06 1024.58 1024.21 1023.99 1023.92 1024.00 1024.23 1024.57 1024.96 1025.36 1025.71 1025.96 1026.09 1026.10 1026.01 1025.85
1019.52 1019.93 1020.32 1020.65 1020.93 1021.15 1021.29 1021.37 1021.40 1021.43 1021.50 1021.64 1021.91 1022.32 1022.88 1023.58 1024.37 1025.19 1026.00 1026.72 1027.30 1027.71 1027.91 1027.91 1027.73 1027.40 1026.96 1026.48 1026.00 1025.58 1025.26 1025.08 1025.05 1025.18 1025.43 1025.78 1026.18 1026.58 1026.91 1027.15 1027.27 1027.28 1027.19 1027.03
1019.39 1019.66 1019.92 1020.19 1020.45 1020.70 1020.92 1021.11 1021.27 1021.41 1021.56 1021.75 1022.01 1022.38 1022.87 1023.49 1024.22 1025.02 1025.83 1026.60 1027.27 1027.80 1028.14 1028.29 1028.26 1028.05 1027.73 1027.33 1026.93 1026.56 1026.28 1026.14 1026.14 1026.27 1026.53 1026.87 1027.26 1027.63 1027.94 1028.17 1028.28 1028.29 1028.21 1028.06
1019.15 1019.27 1019.44 1019.65 1019.92 1020.23 1020.55 1020.86 1021.13 1021.37 1021.58 1021.79 1022.03 1022.34 1022.75 1023.28 1023.94 1024.69 1025.50 1026.32 1027.08 1027.74 1028.23 1028.54 1028.65 1028.59 1028.38 1028.09 1027.76 1027.45 1027.21 1027.09 1027.09 1027.23 1027.47 1027.78 1028.13 1028.47 1028.76 1028.96 1029.08 1029.10 1029.03 1028.91
1018.79 1018.81 1018.91 1019.10 1019.41 1019.79 1020.22 1020.66 1021.05 1021.37 1021.63 1021.84 1022.03 1022.26 1022.58 1023.01 1023.58 1024.28 1025.09 1025.94 1026.79 1027.55 1028.18 1028.63 1028.89 1028.96 1028.88 1028.68 1028.43 1028.18 1027.99 1027.88 1027.89 1028.00 1028.22 1028.50 1028.80 1029.10 1029.36 1029.55 1029.66 1029.69 1029.66 1029.57
1018.32 1018.27 1018.35 1018.58 1018.95 1019.44 1019.99 1020.54 1021.03 1021.42 1021.71 1021.90 1022.05 1022.19 1022.40 1022.74 1023.22 1023.87 1024.65 1025.52 1026.42 1027.27 1028.01 1028.59 1028.97 1029.17 1029.19 1029.09 1028.92 1028.73 1028.57 1028.49 1028.50 1028.60 1028.78 1029.02 1029.29 1029.55 1029.77 1029.95 1030.06 1030.12 1030.11 1030.07
1017.71 1017.67 1017.79 1018.08 1018.55 1019.16 1019.82 1020.48 1021.05 1021.49 1021.79 1021.96 1022.04 1022.11 1022.23 1022.47 1022.88 1023.47 1024.23 1025.11 1026.03 1026.94 1027.76 1028.42 1028.90 1029.19 1029.31 1029.30 1029.20 1029.08 1028.97 1028.91 1028.93 1029.03 1029.19 1029.40 1029.63 1029.85 1030.06 1030.22 1030.34 1030.41 1030.44 1030.43
1017.01 1017.03 1017.23 1017.63 1018.22 1018.93 1019.69 1020.42 1021.04 1021.51 1021.79 1021.93 1021.96 1021.96 1022.02 1022.20 1022.55 1023.10 1023.83 1024.70 1025.64 1026.57 1027.43 1028.15 1028.69 1029.06 1029.25 1029.32 1029.29 1029.23 1029.18 1029.17 1029.21 1029.32 1029.47 1029.66 1029.87 1030.07 1030.26 1030.42 1030.54 1030.63 1030.68 1030.69
1016.25 1016.38 1016.71 1017.23 1017.92 1018.72 1019.54 1020.31 1020.94 1021.39 1021.65 1021.74 1021.73 1021.69 1021.71 1021.85 1022.18 1022.71 1023.43 1024.28 1025.22 1026.16 1027.03 1027.77 1028.35 1028.76 1029.02 1029.15 1029.20 1029.21 1029.23 1029.27 1029.35 1029.49 1029.65 1029.84 1030.04 1030.23 1030.41 1030.56 1030.69 1030.78 1030.84 1030.87
1015.54 1015.82 1016.28 1016.91 1017.67 1018.51 1019.35 1020.09 1020.67 1021.07 1021.28 1021.33 1021.29 1021.23 1021.24 1021.40 1021.73 1022.27 1022.98 1023.84 1024.76 1025.69 1026.55 1027.28 1027.88 1028.32 1028.62 1028.81 1028.93 1029.02 1029.11 1029.22 1029.37 1029.54 1029.74 1029.95 1030.15 1030.34 1030.51 1030.67 1030.79 1030.88 1030.95 1030.97
1014.99 1015.42 1015.99 1016.70 1017.50 1018.32 1019.10 1019.76 1020.26 1020.57 1020.70 1020.71 1020.65 1020.60 1020.63 1020.82 1021.20 1021.76 1022.49 1023.34 1024.25 1025.15 1025.98 1026.70 1027.28 1027.74 1028.07 1028.32 1028.51 1028.68 1028.85 1029.04 1029.25 1029.48 1029.72 1029.95 1030.18 1030.38 1030.56 1030.71 1030.84 1030.93 1030.99 1031.00
1014.69 1015.24 1015.90 1016.64 1017.42 1018.17 1018.83 1019.36 1019.73 1019.92 1019.98 1019.94 1019.87 1019.85 1019.94 1020.19 1020.61 1021.22 1021.96 1022.81 1023.69 1024.55 1025.34 1026.02 1026.59 1027.04 1027.40 1027.70 1027.95 1028.20 1028.46 1028.72 1029.01 1029.30 1029.59 1029.86 1030.11 1030.34 1030.53 1030.70 1030.83 1030.93 1030.98 1030.97
1014.66 1015.31 1016.01 1016.73 1017.43 1018.06 1018.58 1018.95 1019.16 1019.23 1019.21 1019.14 1019.08 1019.10 1019.26 1019.58 1020.06 1020.71 1021.46 1022.29 1023.13 1023.93 1024.66 1025.30 1025.83 1026.27 1026.65 1026.99 1027.31 1027.62 1027.95 1028.30 1028.65 1029.00 1029.34 1029.66 1029.95 1030.20 1030.43 1030.62 1030.77 1030.88 1030.93 1030.93
1014.90 1015.59 1016.29 1016.95 1017.53 1018.01 1018.36 1018.56 1018.63 1018.60 1018.52 1018.44 1018.41 1018.50 1018.72 1019.11 1019.65 1020.32 1021.06 1021.85 1022.62 1023.35 1024.00 1024.57 1025.06 1025.49 1025.87 1026.24 1026.61 1026.99 1027.39 1027.79 1028.21 1028.61 1029.00 1029.36 1029.70 1030.00 1030.27 1030.49 1030.68 1030.82 1030.90 1030.90
1015.30 1015.99 1016.64 1017.21 1017.66 1017.99 1018.18 1018.24 1018.20 1018.10 1018.00 1017.94 1017.98 1018.14 1018.44 1018.89 1019.47 1020.13 1020.83 1021.55 1022.23 1022.85 1023.41 1023.90 1024.33 1024.73 1025.12 1025.51 1025.92 1026.35 1026.80 1027.27 1027.73 1028.18 1028.62 1029.03 1029.41 1029.77 1030.09 1030.37 1030.61 1030.79 1030.90 1030.93
1015.75 1016.40 1016.96 1017.42 1017.74 1017.93 1018.00 1017.96 1017.87 1017.76 1017.69 1017.70 1017.82 1018.07 1018.45 1018.95 1019.53 1020.16 1020.79 1021.40 1021.96 1022.47 1022.91 1023.31 1023.68 1024.05 1024.43 1024.84 1025.28 1025.76 1026.26 1026.77 1027.28 1027.77 1028.25 1028.71 1029.15 1029.56 1029.94 1030.29 1030.58 1030.82 1030.96 1031.01
1016.11 1016.68 1017.15 1017.49 1017.70 1017.79 1017.78 1017.71 1017.62 1017.56 1017.58 1017.69 1017.92 1018.27 1018.71 1019.24 1019.80 1020.37 1020.90 1021.39 1021.81 1022.18 1022.51 1022.81 1023.12 1023.46 1023.84 1024.27 1024.75 1025.27 1025.81 1026.36 1026.91 1027.45 1027.97 1028.47 1028.96 1029.43 1029.87 1030.28 1030.63 1030.90 1031.08 1031.14
1016.31 1016.78 1017.14 1017.38 1017.49 1017.52 1017.48 1017.43 1017.40 1017.44 1017.57 1017.81 1018.16 1018.60 1019.11 1019.64 1020.16 1020.64 1021.06 1021.41 1021.69 1021.93 1022.14 1022.37 1022.64 1022.96 1023.35 1023.81 1024.33 1024.89 1025.48 1026.07 1026.66 1027.23 1027.79 1028.34 1028.87 1029.39 1029.89 1030.34 1030.73 1031.02 1031.21 1031.25
1016.34 1016.70 1016.95 1017.09 1017.14 1017.13 1017.10 1017.10 1017.16 1017.32 1017.58 1017.95 1018.41 1018.92 1019.46 1019.98 1020.45 1020.83 1021.13 1021.35 1021.50 1021.63 1021.76 1021.93 1022.18 1022.51 1022.93 1023.43 1024.00 1024.62 1025.26 1025.89 1026.52 1027.14 1027.73 1028.32 1028.88 1029.44 1029.96 1030.43 1030.82 1031.11 1031.27 1031.26
1016.24 1016.50 1016.64 1016.69 1016.68 1016.66 1016.65 1016.71 1016.86 1017.13 1017.51 1017.98 1018.52 1019.08 1019.63 1020.11 1020.51 1020.80 1020.99 1021.10 1021.15 1021.21 1021.29 1021.45 1021.71 1022.07 1022.55 1023.11 1023.75 1024.43 1025.12 1025.81 1026.48 1027.12 1027.75 1028.36 1028.95 1029.51 1030.03 1030.49 1030.85 1031.09 1031.18 1031.09
1016.10 1016.25 1016.29 1016.27 1016.21 1016.16 1016.17 1016.28 1016.50 1016.84 1017.30 1017.83 1018.41 1018.98 1019.50 1019.94 1020.26 1020.47 1020.57 1020.61 1020.61 1020.63 1020.72 1020.90 1021.21 1021.64 1022.19 1022.83 1023.54 1024.28 1025.03 1025.76 1026.47 1027.15 1027.79 1028.41 1029.00 1029.55 1030.04 1030.45 1030.75 1030.91 1030.89 1030.69
1015.96 1016.01 1015.96 1015.87 1015.76 1015.70 1015.71 1015.83 1016.08 1016.46 1016.93 1017.47 1018.04 1018.58 1019.05 1019.43 1019.69 1019.83 1019.89 1019.90 1019.91 1019.95 1020.08 1020.33 1020.71 1021.23 1021.86 1022.58 1023.36 1024.16 1024.96 1025.73 1026.46 1027.15 1027.80 1028.41 1028.98 1029.49 1029.93 1030.27 1030.48 1030.53 1030.39 1030.07
1015.81 1015.78 1015.66 1015.51 1015.36 1015.27 1015.27 1015.38 1015.62 1015.98 1016.42 1016.93 1017.44 1017.92 1018.34 1018.65 1018.87 1018.99 1019.05 1019.08 1019.13 1019.24 1019.46 1019.81 1020.29 1020.90 1021.61 1022.41 1023.24 1024.08 1024.90 1025.69 1026.43 1027.11 1027.75 1028.33 1028.86 1029.32 1029.69 1029.94 1030.04 1029.98 1029.73 1029.29
1015.57 1015.48 1015.31 1015.12 1014.95 1014.84 1014.81 1014.90 1015.11 1015.42 1015.81 1016.25 1016.69 1017.11 1017.47 1017.75 1017.95 1018.09 1018.19 1018.29 1018.44 1018.67 1019.00 1019.46 1020.04 1020.73 1021.51 1022.35 1023.20 1024.05 1024.87 1025.64 1026.35 1027.01 1027.62 1028.16 1028.64 1029.04 1029.33 1029.49 1029.50 1029.33 1028.98 1028.46
1015.11 1014.97 1014.78 1014.58 1014.41 1014.30 1014.27 1014.34 1014.52 1014.79 1015.13 1015.50 1015.89 1016.26 1016.59 1016.87 1017.10 1017.31 1017.50 1017.73 1018.00 1018.37 1018.83 1019.40 1020.07 1020.82 1021.63 1022.46 1023.30 1024.11 1024.88 1025.60 1026.27 1026.87 1027.43 1027.92 1028.35 1028.68 1028.90 1028.99 1028.92 1028.68 1028.26 1027.68
Thickness
5648 5640 5639 5643 5644 5645 5640 5632 5635 5641 5646 5645 5641 5641 5638 5621 5611 5602 5598 5596 5594 5592 5591 5591 5591 5594 5598 5602 5606 5608 5609 5610 5611 5609 5605 5600 5592 5588 5585 5582 5580 5580 5579 5579
5632 5632 5645 5644 5638 5636 5632 5627 5626 5630 5635 5630 5628 5629 5620 5607 5602 5596 5590 5586 5584 5582 5581 5581 5581 5582 5584 5587 5589 5591 5592 5593 5594 5592 5588 5582 5576 5570 5566 5563 5562 5561 5560 5559
5630 5639 5641 5634 5628 5622 5619 5618 5619 5618 5623 5623 5619 5618 5614 5592 5587 5583 5578 5577 5575 5573 5570 5567 5567 5567 5569 5570 5572 5574 5575 5575 5575 5574 5572 5567 5561 5554 5550 5545 5542 5539 5539 5538
5621 5630 5629 5624 5621 5618 5612 5616 5615 5613 5607 5599 5606 5596 5614 5590 5579 5573 5568 5564 5563 5562 5559 5556 5554 5554 5554 5553 5554 5556 5557 5557 5556 5555 5553 5550 5542 5533 5525 5523 5521 5519 5518 5516
5615 5621 5620 5617 5619 5613 5614 5614 5606 5604 5595 5590 5592 5588 5598 5584 5581 5569 5560 5555 5553 5551 5548 5544 5541 5539 5538 5537 5537 5538 5538 5537 5535 5534 5532 5528 5520 5513 5507 5505 5503 5500 5497 5495
5611 5615 5615 5616 5616 5610 5604 5597 5588 5580 5579 5578 5587 5580 5589 5588 5591 5572 5555 5548 5543 5539 5535 5531 5527 5524 5521 5519 5519 5519 5519 5515 5513 5512 5509 5505 5500 5494 5490 5486 5482 5479 5477 5474
5600 5605 5610 5610 5603 5601 5599 5586 5574 5571 5564 5569 5580 5576 5588 5592 5577 5566 5555 5542 5532 5526 5520 5515 5511 5507 5504 5502 5500 5499 5498 5495 5492 5491 5488 5484 5480 5475 5471 5465 5461 5458 5455 5452
5587 5594 5600 5601 5601 5592 5587 5587 5574 5564 5558 5559 5566 5564 5582 5564 5555 5553 5546 5534 5523 5514 5507 5502 5497 5492 5488 5485 5483 5481 5479 5475 5472 5470 5466 5463 5460 5456 5450 5445 5442 5437 5433 5430
5587 5590 5595 5594 5596 5590 5578 5576 5577 5558 5532 5536 5552 5561 5570 5545 5538 5532 5527 5518 5511 5504 5497 5490 5484 5478 5474 5471 5468 5465 5461 5457 5454 5451 5447 5444 5440 5435 5430 5426 5421 5417 5413 5410
5589 5583 5586 5582 5582 5579 5577 5568 5551 5554 5546 5540 5552 5555 5566 5550 5529 5518 5513 5511 5505 5496 5486 5478 5471 5465 5461 5457 5452 5448 5444 5440 5436 5433 5429 5425 5420 5416 5411 5406 5401 5397 5393 5390
5581 5577 5567 5568 5568 5567 5558 5556 5555 5546 5539 5529 5529 5553 5554 5553 5533 5519 5514 5509 5499 5487 5478 5468 5460 5454 5448 5442 5437 5432 5428 5423 5419 5415 5411 5406 5401 5396 5391 5386 5380 5376 5371 5367
5570 5563 5553 5555 5557 5557 5555 5555 5547 5540 5528 5522 5524 5543 5543 5538 5525 5516 5507 5498 5486 5476 5466 5457 5450 5442 5434 5428 5423 5417 5412 5407 5403 5398 5393 5387 5381 5376 5370 5364 5358 5353 5348 5343
5560 5549 5538 5542 5538 5536 5538 5537 5536 5533 5520 5501 5500 5525 5523 5515 5508 5501 5493 5484 5475 5464 5454 5446 5438 5431 5423 5415 5409 5403 5397 5391 5386 5380 5374 5368 5361 5355 5348 5342 5336 5330 5325 5320
5554 5542 5542 5543 5544 5528 5522 5522 5517 5512 5506 5497 5503 5520 5513 5505 5497 5486 5477 5469 5460 5452 5445 5436 5428 5420 5412 5403 5395 5389 5382 5376 5369 5362 5356 5349 5342 5335 5328 5321 5314 5307 5302 5296
5536 5529 5525 5528 5526 5518 5521 5522 5507 5505 5511 5510 5511 5504 5508 5494 5486 5476 5465 5456 5446 5440 5433 5426 5417 5408 5399 5390 5382 5375 5368 5361 5353 5345 5338 5331 5323 5315 5307 5299 5292 5285 5279 5273
5518 5514 5505 5498 5489 5493 5497 5505 5497 5496 5494 5487 5486 5487 5489 5480 5467 5458 5449 5441 5435 5429 5422 5413 5405 5397 5387 5379 5370 5363 5355 5347 5338 5329 5321 5312 5303 5294 5286 5278 5271 5264 5258 5252
5497 5492 5489 5487 5457 5464 5484 5495 5488 5480 5476 5475 5476 5487 5471 5456 5448 5441 5433 5427 5423 5416 5408 5400 5393 5386 5378 5368 5359 5350 5342 5332 5321 5312 5301 5291 5281 5273 5265 5258 5251 5244 5239 5234
5487 5482 5478 5456 5437 5464 5505 5479 5482 5477 5472 5463 5461 5455 5445 5440 5432 5425 5417 5411 5406 5400 5393 5387 5379 5371 5363 5355 5345 5336 5326 5315 5304 5293 5282 5271 5262 5253 5246 5239 5232 5227 5222 5217
5473 5470 5445 5436 5445 5451 5456 5456 5453 5448 5445 5445 5440 5439 5426 5412 5408 5404 5401 5394 5390 5385 5380 5372 5365 5358 5349 5340 5330 5318 5308 5297 5286 5276 5265 5254 5245 5237 5230 5223 5217 5211 5206 5202
5442 5448 5439 5418 5425 5431 5461 5442 5436 5429 5417 5426 5416 5413 5397 5389 5389 5395 5388 5380 5375 5369 5363 5356 5349 5341 5332 5324 5312 5301 5291 5280 5271 5262 5250 5239 5230 5222 5216 5209 5202 5196 5191 5187
5419 5417 5427 5416 5419 5423 5427 5417 5416 5406 5417 5409 5395 5389 5379 5379 5384 5382 5376 5367 5361 5355 5348 5341 5332 5324 5318 5307 5294 5284 5275 5266 5257 5244 5233 5224 5216 5209 5202 5195 5188 5181 5176 5172
5421 5410 5403 5398 5398 5418 5407 5397 5398 5400 5392 5382 5379 5375 5369 5369 5369 5364 5358 5352 5345 5338 5332 5324 5314 5308 5301 5289 5276 5268 5260 5252 5238 5228 5218 5209 5201 5194 5188 5180 5173 5165 5159 5155
5410 5421 5413 5411 5417 5408 5395 5393 5388 5381 5374 5370 5367 5364 5361 5357 5352 5347 5341 5335 5330 5324 5318 5309 5298 5292 5283 5271 5261 5254 5246 5233 5222 5211 5203 5194 5187 5180 5173 5166 5159 5152 5145 5140
5383 5387 5384 5378 5381 5380 5371 5369 5367 5362 5363 5362 5358 5353 5346 5340 5338 5332 5327 5321 5315 5308 5301 5292 5281 5272 5266 5255 5246 5239 5228 5217 5206 5197 5188 5181 5174 5168 5161 5153 5147 5140 5133 5128
5384 5370 5364 5361 5365 5359 5355 5353 5352 5349 5348 5346 5341 5336 5331 5325 5322 5317 5312 5307 5301 5295 5287 5276 5266 5261 5255 5242 5231 5221 5212 5202 5192 5183 5176 5169 5162 5155 5148 5142 5135 5130 5125 5118
5374 5366 5357 5354 5357 5349 5352 5352 5346 5340 5338 5333 5327 5322 5318 5311 5307 5303 5298 5294 5287 5280 5272 5261 5254 5247 5239 5226 5215 5204 5196 5188 5179 5171 5163 5156 5149 5142 5136 5130 5125 5121 5119 5117